NOAA 19 (33591 NORAD) Tracking and Keplerian Element Data

This shows tracking and keplerian element data for the satellite.

Feedback or suggestion? Click here.




ElementValue
Catalog33591
NameNOAA 19
Epoch Orbit78555
Epoch Day126.17778326
Epoch Year2024
RAAN181.5161
Inclination99.0503
Eccentricity0.0014617
Argument of Perigee56.7668
Mean Anonmoly303.4903
Mean Motion14.12988625
Decay Rate2.89E-06
L11 33591U 09005A 24126.17778326 .00000289 00000+0 17933-3 0 9995
L22 33591 99.0503 181.5161 0014617 56.7668 303.4903 14.12988625785557



Live tracking and technical data element details for NOAA 19 (NORAD 33591). NOAA 19 can be tracked NOW for your location showing map with azimuth and elevation plus other details from your city location.







IsCatalogInMostPopularTable: catalog: 33591, numindb: 2012
Update: records affected: 1



GetName: 33591 NOAA 19

Hit Count: updated at: Thu, 30 May 2024 16:56:13 GMT